Date String (YYYY-MM-DD hh:mm:ss) UTC,Instrument flags,Ambient pressure (hPa),Sample flow (lpm),Bypass flow (lpm),Sample temperature (°C),Ambient temperature (°C),ASC tube jacket temperature (°C),LED temperature (°C),Box temperature (°C),Sample RH (%),Span deviation,Mass concentration (μg/m³),Mass concentration (μg/m³),Mass concentration (μg/m³)
DateTimeUTC,F1_M11,P_M11,Q1_M11,Q2_M11,T1_M11,T2_M11,T3_M11,T4_M11,T5_M11,U1_M11,ZSPAN_M11,X0_M11,X2_M11,X1_M11
2023-02-15 08:00:00,,0817.2,4.98,0.00,23.3,23.2,00.0,32.0,25.1,10.6,0000.0,0003.95,0002.99,0002.73
2023-02-15 08:01:00,,0817.1,4.98,0.00,23.2,22.7,00.0,32.0,25.0,10.6,0000.0,0003.97,0003.01,0002.74
2023-02-15 08:02:00,,0817.1,5.01,0.00,23.2,22.2,00.0,32.0,24.9,10.6,0000.0,0004.16,0003.04,0002.75
2023-02-15 08:03:00,,0817.2,5.01,0.00,23.2,21.8,00.0,32.0,24.9,10.6,0000.0,0004.07,0003.02,0002.74
2023-02-15 08:04:00,,0817.1,4.99,0.00,23.1,21.6,00.0,32.0,24.8,10.7,0000.0,0004.06,0002.99,0002.74
2023-02-15 08:05:00,,0817.1,4.99,0.00,23.1,21.4,00.0,32.0,24.7,10.7,0000.0,0004.06,0002.99,0002.75
2023-02-15 08:06:00,,0817.1,4.99,0.00,23.0,21.3,00.0,32.0,24.6,10.7,0000.0,0004.38,0003.02,0002.76
2023-02-15 08:07:00,,0817.2,5.00,0.00,23.0,21.1,00.0,31.9,24.6,10.7,0000.0,0004.32,0003.02,0002.76
2023-02-15 08:08:00,,0817.1,5.00,0.00,22.9,21.0,00.0,31.9,24.6,10.7,0000.0,0004.32,0003.01,0002.76
2023-02-15 08:09:00,,0817.1,5.02,0.00,22.9,21.3,00.0,31.9,24.6,10.7,0000.0,0004.27,0002.99,0002.75
2023-02-15 08:10:00,,0817.2,5.03,0.00,23.0,22.4,00.0,31.9,24.9,10.6,0000.0,0004.26,0002.98,0002.75
2023-02-15 08:11:00,,0817.2,5.01,0.00,23.1,23.4,00.0,31.9,25.1,10.6,0000.0,0004.31,0002.97,0002.73
2023-02-15 08:12:00,,0817.3,4.99,0.00,23.2,23.2,00.0,31.9,25.1,10.5,0000.0,0004.36,0002.97,0002.73
2023-02-15 08:13:00,,0817.3,4.96,0.00,23.2,22.7,00.0,31.9,25.0,10.5,0000.0,0004.34,0002.99,0002.75
2023-02-15 08:14:00,,0817.3,5.00,0.00,23.1,22.3,00.0,31.9,24.9,10.5,0000.0,0004.97,0003.06,0002.79
2023-02-15 08:15:00,,0817.3,4.99,0.00,23.1,22.0,00.0,32.0,24.8,10.5,0000.0,0004.97,0003.11,0002.82
2023-02-15 08:16:00,,0817.3,5.00,0.00,23.1,21.7,00.0,32.0,24.8,10.5,0000.0,0005.00,0003.13,0002.83
2023-02-15 08:17:00,,0817.3,5.00,0.00,23.1,21.5,00.0,31.9,24.7,10.5,0000.0,0004.68,0003.13,0002.84
2023-02-15 08:18:00,,0817.3,5.01,0.00,23.0,21.3,00.0,31.9,24.7,10.5,0000.0,0004.71,0003.14,0002.84
2023-02-15 08:19:00,,0817.3,4.99,0.00,23.0,21.2,00.0,31.9,24.6,10.5,0000.0,0004.77,0003.15,0002.85
2023-02-15 08:20:00,,0817.3,5.00,0.00,22.9,21.1,00.0,31.9,24.6,10.5,0000.0,0004.90,0003.17,0002.86
2023-02-15 08:21:00,,0817.3,5.00,0.00,22.9,21.0,00.0,31.9,24.5,10.6,0000.0,0005.08,0003.22,0002.90
2023-02-15 08:22:00,,0817.2,5.00,0.00,22.8,20.9,00.0,31.9,24.5,10.5,0000.0,0005.06,0003.23,0002.94
2023-02-15 08:23:00,,0817.2,5.00,0.00,22.8,20.9,00.0,31.8,24.5,10.5,0000.0,0004.93,0003.23,0002.98
2023-02-15 08:24:00,,0817.1,5.03,0.00,22.9,21.8,00.0,31.8,24.7,10.5,0000.0,0004.81,0003.24,0003.01
2023-02-15 08:25:00,,0817.1,5.03,0.00,23.0,22.8,00.0,31.8,24.9,10.5,0000.0,0004.30,0003.22,0003.00
2023-02-15 08:26:00,,0817.1,5.00,0.00,23.1,23.3,00.0,31.8,25.0,10.4,0000.0,0004.28,0003.21,0002.98
2023-02-15 08:27:00,,0817.0,5.03,0.00,23.1,22.8,00.0,31.8,25.0,10.4,0000.0,0004.25,0003.21,0002.98
2023-02-15 08:28:00,,0817.0,5.01,0.00,23.1,22.3,00.0,31.9,24.9,10.4,0000.0,0004.22,0003.21,0002.99
2023-02-15 08:29:00,,0817.0,5.00,0.00,23.1,22.0,00.0,31.9,24.8,10.4,0000.0,0004.18,0003.20,0003.00
2023-02-15 08:30:00,,0817.0,4.99,0.00,23.0,21.7,00.0,31.9,24.7,10.4,0000.0,0004.14,0003.20,0003.01
2023-02-15 08:31:00,,0817.1,5.00,0.00,23.0,21.4,00.0,31.9,24.7,10.4,0000.0,0004.08,0003.21,0003.03
2023-02-15 08:32:00,,0817.1,5.00,0.00,22.9,21.2,00.0,31.8,24.6,10.4,0000.0,0004.04,0003.21,0003.05
2023-02-15 08:33:00,,0817.1,5.00,0.00,22.9,21.1,00.0,31.8,24.5,10.4,0000.0,0004.08,0003.21,0003.05
2023-02-15 08:34:00,,0817.1,5.01,0.00,22.9,21.0,00.0,31.8,24.5,10.4,0000.0,0004.19,0003.23,0003.05
2023-02-15 08:35:00,,0817.1,5.01,0.00,22.8,20.9,00.0,31.8,24.4,10.4,0000.0,0004.29,0003.24,0003.02
2023-02-15 08:36:00,,0817.1,5.00,0.00,22.8,20.8,00.0,31.8,24.4,10.4,0000.0,0004.32,0003.24,0003.01
2023-02-15 08:37:00,,0817.2,5.01,0.00,22.7,20.7,00.0,31.8,24.4,10.4,0000.0,0004.24,0003.24,0003.01
2023-02-15 08:38:00,,0817.1,4.99,0.00,22.7,20.7,00.0,31.7,24.3,10.5,0000.0,0004.39,0003.22,0002.98
2023-02-15 08:39:00,,0817.1,5.01,0.00,22.7,21.1,00.0,31.7,24.4,10.4,0000.0,0004.44,0003.22,0002.95
2023-02-15 08:40:00,,0817.1,4.99,0.00,22.8,22.1,00.0,31.6,24.7,10.4,0000.0,0004.47,0003.22,0002.93
2023-02-15 08:41:00,,0817.1,5.02,0.00,22.9,23.0,00.0,31.6,24.9,10.3,0000.0,0004.48,0003.21,0002.90
2023-02-15 08:42:00,,0817.2,5.00,0.00,23.0,22.8,00.0,31.7,24.9,10.2,0000.0,0004.47,0003.19,0002.86
2023-02-15 08:43:00,,0817.1,5.00,0.00,22.9,22.3,00.0,31.7,24.8,10.2,0000.0,0004.36,0003.16,0002.82
2023-02-15 08:44:00,,0817.1,5.01,0.00,22.9,21.9,00.0,31.7,24.6,10.2,0000.0,0004.42,0003.13,0002.79
2023-02-15 08:45:00,,0817.1,4.99,0.00,22.9,21.6,00.0,31.7,24.6,10.2,0000.0,0004.95,0003.10,0002.75
2023-02-15 08:46:00,,0817.0,5.01,0.00,22.8,21.4,00.0,31.7,24.5,10.2,0000.0,0005.59,0003.06,0002.73
2023-02-15 08:47:00,,0817.1,4.98,0.00,22.8,21.2,00.0,31.7,24.5,10.2,0000.0,0005.81,0003.01,0002.71
2023-02-15 08:48:00,,0817.1,5.02,0.00,22.8,21.1,00.0,31.7,24.4,10.2,0000.0,0006.75,0003.00,0002.71
2023-02-15 08:49:00,,0817.1,5.00,0.00,22.7,20.9,00.0,31.7,24.4,10.2,0000.0,0006.61,0002.99,0002.71
2023-02-15 08:50:00,,0817.0,4.99,0.00,22.7,20.8,00.0,31.7,24.3,10.2,0000.0,0006.58,0002.99,0002.72
2023-02-15 08:51:00,,0817.0,5.01,0.00,22.7,21.0,00.0,31.6,24.4,10.2,0000.0,0006.54,0002.97,0002.72
2023-02-15 08:52:00,,0817.0,5.03,0.00,22.7,22.0,00.0,31.6,24.6,10.2,0000.0,0006.43,0002.93,0002.71
2023-02-15 08:53:00,,0817.0,5.02,0.00,22.9,23.1,00.0,31.6,24.9,10.1,0000.0,0006.42,0002.94,0002.72
2023-02-15 08:54:00,,0817.0,4.94,0.00,23.0,23.7,00.0,31.6,25.0,10.1,0000.0,0006.42,0002.95,0002.71
2023-02-15 08:55:00,,0817.0,5.00,0.00,23.0,23.2,00.0,31.7,25.0,10.0,0000.0,0006.40,0002.96,0002.72
2023-02-15 08:56:00,,0817.0,5.02,0.00,23.0,22.6,00.0,31.7,24.8,10.0,0000.0,0006.10,0002.96,0002.73
2023-02-15 08:57:00,,0817.1,5.00,0.00,23.0,22.1,00.0,31.7,24.7,10.0,0000.0,0005.29,0003.01,0002.75
2023-02-15 08:58:00,,0817.1,5.01,0.00,22.9,21.8,00.0,31.7,24.7,10.1,0000.0,0005.35,0003.05,0002.76
2023-02-15 08:59:00,,0817.1,5.03,0.00,22.9,21.5,00.0,31.7,24.6,10.1,0000.0,0004.34,0003.09,0002.76
